Regional Weather Roundup
Issued by NWS

Home | Current Version | Previous Version | Graphics & Text | Print | Product List | Glossary On
Versions: 1 2 3 4 5 6 7 8 9 10 11 12 13 14 15 16 17 18 19 20 21 22 23 24 25 26 27 28 29 30 31 32 33 34 35 36 37 38 39 40 41 42 43 44 45 46 47 48 49 50
000
ASUS45 KBOU 280407
RWRCO

WEATHER ROUNDUP FOR COLORADO
NATIONAL WEATHER SERVICE DENVER/BOULDER CO
900 PM MST TUE JAN 27 2015

NOTE: "FAIR" INDICATES FEW OR NO CLOUDS BELOW 12000 FEET WITH NO
SIGNIFICANT WEATHER AND/OR OBSTRUCTIONS TO VISIBILITY.

COZ001>005-013-030-031-280500-
...NORTHWEST COLORADO...

CITY           SKY/WX    TMP DP  RH WIND       PRES   REMARKS
CRAIG          CLOUDY    35  30  82 CALM      30.23F
HAYDEN         CLOUDY    37  27  65 W9        30.23S
MEEKER         CLOUDY    41  30  65 CALM      30.24R
MOUNT WERNER   NOT AVBL
STEAMBOAT SPGS PTCLDY    34  25  70 E3        30.24R
WALDEN         CLOUDY    36  25  64 S7        30.23R
$$

COZ006>008-011-280500-
...WEST CENTRAL VALLEYS...

CITY           SKY/WX    TMP DP  RH WIND       PRES   REMARKS
GRAND JUNCTION MOCLDY    34  28  79 E6        30.25S WCI  29
MONTROSE       PTCLDY    34  24  67 SE10      30.28S WCI  26
EAGLE          CLEAR     34  27  75 CALM      30.26R
RIFLE          CLOUDY    39  27  62 E5        30.25S
DELTA          NOT AVBL
NUCLA          PTCLDY    37  30  75 E6        30.31S
$$

COZ017>023-064>068-280500-
...SOUTHWEST COLORADO...

CITY           SKY/WX    TMP DP  RH WIND       PRES   REMARKS
DURANGO        CLEAR     33  27  78 NE3       30.30S
CORTEZ         CLOUDY    36  29  75 E6        30.28S
PAGOSA SPRINGS PTCLDY    33  27  78 CALM      30.33R
TELLURIDE      NOT AVBL
WOLF CREEK PAS NOT AVBL
$$

COZ009-010-012-014-032>034-037-058>063-280500-
...CENTRAL COLORADO...

CITY           SKY/WX    TMP DP  RH WIND       PRES   REMARKS
ASPEN          CLEAR     29  22  75 CALM      30.27R
BUENA VISTA    CLEAR     28  23  80 W6        30.23S WCI  22
COPPER MTN     PTCLDY    34  16  47 S9G22     30.36S WCI  26
BERTHOUD PASS  FAIR      27  21  80 NW14G21   30.37F WCI  15
COTTONWOOD PAS CLEAR     41  14  33 NW3       30.28F
GUNNISON       PTCLDY    14   0  52 CALM      30.35R
KREMMLING      PTCLDY    21  18  86 CALM      30.28R
LEADVILLE      PTCLDY    29  14  53 N8        30.28R WCI  21
MONARCH PASS   PTCLDY    25  18  74 W35       30.43F WCI   7
SALIDA         PTCLDY    45  19  35 SW9G16    30.29S
SUNLIGHT       CLOUDY    32  28  86 CALM      30.34
WILKERSON PASS PTCLDY    32  14  47 W7        30.33S WCI  26
$$

COZ069>075-280500-
...SAN LUIS VALLEY/SANGRE DE CRISTO MOUNTAINS...

CITY           SKY/WX    TMP DP  RH WIND       PRES   REMARKS
ALAMOSA        PTCLDY    23  17  78 W6        30.26S WCI  16
LA VETA PASS   NOT AVBL
SAGUACHE       PTCLDY    30  23  74 NW7       30.28S WCI  23
$$

COZ035-036-038>040-280500-
...NORTHERN COLORADO FRONT RANGE...

CITY           SKY/WX    TMP DP  RH WIND       PRES   REMARKS
DENVER INTL AP PTCLDY    45  29  53 W8        30.00F
DMNS CITY PARK   N/A     48  24  38 S5        30.01S
AURORA         PTCLDY    45  31  57 SW6       30.03S
FRONT RANGE AP NOT AVBL
ERIE MUNI ARPT PTCLDY    35  26  67 S3        30.00S
BOULDER MUN AP PTCLDY    52  19  28 W5        30.00S
CENTENNIAL     PTCLDY    45  27  49 SW8       30.03F
BROOMFIELD     CLEAR     54  19  26 NW6       30.03S
FORT COLLINS   PTCLDY    46  25  42 N7        30.01F
LONGMONT       PTCLDY    46  21  36 CALM      30.02R
$$

COZ041-046-047-076>085-087-088-280500-
...PIKES PEAK/PALMER DIVIDE AND SOUTHERN FOOTHILLS...

CITY           SKY/WX    TMP DP  RH WIND       PRES   REMARKS
COLO. SPRINGS  CLEAR     41  24  51 NE13      30.05F
A. F. ACADEMY  CLEAR     47  17  29 CALM      30.06F
ELLICOTT       CLEAR    N/A N/A N/A NE6       30.03F
FALCON         CLEAR     37  22  54 NW7       30.08F
FORT CARSON    CLEAR     44  25  46 N9        30.02F
LIMON          CLEAR     30  23  75 N8        30.00F WCI  22
MONUMENT HILL  PTCLDY    39  21  48 W9        30.08F
TRINIDAD       CLEAR     49  27  42 W14       30.08F
$$

COZ042>045-048>051-090-091-280500-
...NORTHEAST COLORADO...

CITY           SKY/WX    TMP DP  RH WIND       PRES   REMARKS
GREELEY ARPT   MOCLDY    37  23  56 NW5       29.97F
AKRON          PTCLDY    48  27  44 SW10      29.95F
BURLINGTON     CLEAR     44  29  55 SW9       29.95F
WRAY           PTCLDY    47  31  53 SW7       29.94R
STERLING       PTCLDY    45  34  65 N3        29.94S
HOLYOKE        PTCLDY    37  30  75 CALM      29.94S
FORT MORGAN    PTCLDY    42  28  57 N12       29.96F
$$

COZ086-089-092>099-280500-
...SOUTHEAST COLORADO...

CITY           SKY/WX    TMP DP  RH WIND       PRES   REMARKS
PUEBLO         CLEAR     46  28  49 SW8       29.99F
LA JUNTA       CLEAR     52  30  43 SW17      29.97F
LAMAR          CLEAR     47  33  58 W8        29.95S
SPRINGFIELD      N/A     46  32  58 SW9       30.01F
$$


USA.gov is the U.S. government's official web portal to all federal, state and local government web resources and services.